Weather History for Carbondale, IL

Change the Weather History Date:

Sunday, February 3, 2013

  Actual Average Record
Temperature  
Mean Temperature 32 °F -  
Max Temperature 37 °F 40 °F 70 °F (1931)
Min Temperature 27 °F 20 °F -5 °F (1966)
Degree Days  
Heating Degree Days 33    
Moisture  
Dew Point 26 °F    
Average Humidity 75    
Maximum Humidity 93    
Minimum Humidity 48    
Precipitation  
Precipitation 0.03 in - - ()
Sea Level Pressure  
Sea Level Pressure 30.10 in    
Wind  
Wind Speed 4 mph (West)    
Max Wind Speed 18 mph    
Max Gust Speed 29 mph    
Visibility 6 miles    
Events Fog , Snow    
Averages and records for this station are not official NWS values.
T = Trace of Precipitation, MM = Missing Value Source: NWS Daily Summary

Daily Weather History Graph

Daily Weather History Graph

Search for Another Location

Airport:

Trip Planner

Search our weather history database for the weather conditions in past years. The results will help you decide how hot, cold, wet, or windy it might be!

Date:

Astronomy

Feb. 03, 2013 Rise Set
Actual Time 6:59 AM CST 5:23 PM CST
Civil Twilight 6:31 AM CST 5:50 PM CST
Nautical Twilight 6:00 AM CST 6:21 PM CST
Astronomical Twilight 5:29 AM CST 6:52 PM CST
Moon 12:26 AM CST (2/3) 11:01 AM CST (2/3)
Length of Visible Light 11h 19m
Length of Day
10h 24m
Waning Gibbous, 48% of the Moon is Illuminated
Feb 3
Waning Gibbous
Feb 10
New
Feb 17
First Quarter
Feb 25
Full
Mar 4
Last Quarter

Hourly Weather History & Observations

Time (CST) Temp. Windchill Dew Point Humidity Pressure Visibility Wind Dir Wind Speed Gust Speed Precip Events Conditions
12:08 AM 35.6 °F - 28.4 °F 75% 30.09 in 2.5 mi Calm Calm - 0.00 in Snow Light Snow
12:17 AM 33.8 °F - 28.4 °F 81% 30.09 in 1.0 mi Calm Calm - 0.00 in Snow Light Snow
12:34 AM 33.8 °F - 30.2 °F 87% 30.08 in 2.5 mi Calm Calm - 0.01 in Snow Light Snow
12:52 AM 33.1 °F 30.0 °F 30.0 °F 89% 30.08 in 4.0 mi South 3.5 mph - 0.01 in Snow Light Snow
12:57 AM 33.8 °F 30.8 °F 30.2 °F 87% 30.07 in 1.8 mi South 3.5 mph - 0.01 in Snow Light Snow
1:04 AM 33.8 °F 29.6 °F 30.2 °F 87% 30.06 in 2.0 mi South 4.6 mph - 0.01 in Snow Light Snow
1:07 AM 33.8 °F 30.8 °F 30.2 °F 87% 30.06 in 3.0 mi South 3.5 mph - 0.01 in Snow Light Snow
1:27 AM 33.8 °F - 30.2 °F 87% 30.06 in 2.5 mi Calm Calm - 0.01 in Snow Light Snow
1:36 AM 33.8 °F 30.8 °F 30.2 °F 87% 30.04 in 2.0 mi East 3.5 mph - 0.01 in Snow Light Snow
1:41 AM 33.8 °F 30.8 °F 30.2 °F 87% 30.05 in 3.0 mi East 3.5 mph - 0.01 in Snow Light Snow
1:52 AM 33.1 °F 25.5 °F 30.0 °F 89% 30.04 in 6.0 mi SSE 9.2 mph - 0.01 in   Overcast
2:52 AM 32.0 °F - 28.9 °F 88% 30.04 in 4.0 mi Calm Calm - N/A   Mostly Cloudy
2:57 AM 32.0 °F - 28.4 °F 87% 30.03 in 1.8 mi Calm Calm - N/A   Scattered Clouds
3:16 AM 32.0 °F - 28.4 °F 87% 30.03 in 0.5 mi Calm Calm - N/A Fog Fog
3:24 AM 30.2 °F 25.4 °F 28.4 °F 93% 30.02 in 0.8 mi Variable 4.6 mph - N/A   Mostly Cloudy
3:30 AM 30.2 °F - 28.4 °F 93% 30.02 in 2.0 mi Calm Calm - N/A   Overcast
3:44 AM 30.2 °F - 28.4 °F 93% 30.02 in 1.8 mi Calm Calm - N/A   Overcast
3:49 AM 32.0 °F - 28.4 °F 87% 30.02 in 0.5 mi Calm Calm - N/A Fog Fog
3:52 AM 32.0 °F - 28.9 °F 88% 30.03 in 0.2 mi Calm Calm - N/A Fog Fog
4:26 AM 30.2 °F 26.7 °F 26.6 °F 86% 30.03 in 0.2 mi WSW 3.5 mph - N/A Fog Light Freezing Fog
4:52 AM 27.0 °F - 23.0 °F 85% 30.03 in 0.2 mi Calm Calm - N/A Fog Light Freezing Fog
5:19 AM 28.4 °F 23.3 °F 23.0 °F 80% 30.03 in 1.0 mi West 4.6 mph - N/A   Haze
5:23 AM 30.2 °F 23.4 °F 24.8 °F 80% 30.03 in 4.0 mi West 6.9 mph - N/A   Haze
6:52 AM 33.1 °F 24.9 °F 27.0 °F 78% 30.07 in 10.0 mi WNW 10.4 mph - N/A   Clear
7:52 AM 34.0 °F 26.0 °F 27.0 °F 75% 30.08 in 10.0 mi WNW 10.4 mph - N/A   Scattered Clouds
8:38 AM 37.4 °F 29.8 °F 26.6 °F 65% 30.10 in 10.0 mi WNW 11.5 mph 18.4 mph 0.01 in   Mostly Cloudy
8:52 AM 37.0 °F 28.9 °F 27.0 °F 67% 30.11 in 10.0 mi WNW 12.7 mph 20.7 mph 0.01 in   Scattered Clouds
9:52 AM 37.0 °F 28.1 °F 26.1 °F 65% 30.14 in 10.0 mi NW 15.0 mph 24.2 mph N/A   Mostly Cloudy
10:39 AM 37.4 °F 27.5 °F 24.8 °F 60% 30.16 in 10.0 mi WNW 18.4 mph 24.2 mph N/A   Overcast
10:49 AM 37.4 °F 27.5 °F 24.8 °F 60% 30.17 in 10.0 mi WNW 18.4 mph 24.2 mph N/A   Overcast
10:52 AM 37.0 °F 28.1 °F 24.1 °F 59% 30.18 in 10.0 mi WNW 15.0 mph 24.2 mph N/A   Overcast
11:52 AM 37.0 °F 28.5 °F 21.9 °F 54% 30.19 in 10.0 mi NW 13.8 mph 28.8 mph N/A   Overcast
12:52 PM 37.0 °F 28.1 °F 21.9 °F 54% 30.20 in 10.0 mi WNW 15.0 mph 23.0 mph N/A   Overcast
1:52 PM 37.0 °F 28.5 °F 19.9 °F 50% 30.19 in 10.0 mi NNW 13.8 mph 20.7 mph N/A   Partly Cloudy
2:52 PM 37.9 °F 29.6 °F 19.9 °F 48% 30.19 in 10.0 mi NNW 13.8 mph - N/A   Partly Cloudy
3:52 PM 37.9 °F 30.5 °F 21.0 °F 51% 30.19 in 10.0 mi North 11.5 mph - N/A   Clear
4:52 PM 36.0 °F 32.1 °F 21.0 °F 55% 30.18 in 10.0 mi North 4.6 mph - N/A   Clear
5:52 PM 33.1 °F - 21.0 °F 61% 30.18 in 10.0 mi Calm Calm - N/A   Clear
6:52 PM 30.9 °F - 23.0 °F 72% 30.19 in 10.0 mi Calm Calm - N/A   Clear
7:52 PM 30.9 °F 27.5 °F 19.9 °F 64% 30.17 in 10.0 mi SE 3.5 mph - N/A   Clear
8:52 PM 30.0 °F 22.4 °F 19.9 °F 66% 30.14 in 10.0 mi SE 8.1 mph - N/A   Clear
9:52 PM 28.9 °F 23.9 °F 18.0 °F 64% 30.13 in 10.0 mi SSE 4.6 mph - N/A   Clear
10:52 PM 28.9 °F 23.9 °F 19.0 °F 67% 30.11 in 10.0 mi SE 4.6 mph - N/A   Clear
11:52 PM 28.9 °F 23.9 °F 19.0 °F 67% 30.08 in 10.0 mi SE 4.6 mph - N/A   Clear